Time_in_sec,Latitude,Longitude,Altitude,Nbsat_max_qualitysignal,Nbsat_locked,valid_data
1314361692.41254854,0.00024469,0.00015270,848.63574219,0,0,0
1314361943.51668620,0.00041918,0.00047800,62.05369568,0,0,0
1314361943.56945300,0.00041849,0.00047722,62.20202637,0,0,0
1314361943.61724186,0.00041892,0.00047758,62.38402557,0,0,0
1314361943.66949105,0.00041822,0.00047680,62.53261566,0,0,0
1314361943.71660447,0.00041865,0.00047715,62.71480560,0,0,0
1314361943.76866412,0.00041796,0.00047637,62.86365128,0,0,0
1314361943.81746030,0.00041839,0.00047672,63.04600906,0,0,0
1314361943.86853290,0.00041770,0.00047594,63.19511414,0,0,0
1314361943.91729093,0.00041812,0.00047629,63.37765503,0,0,0
1314361943.96952152,0.00041743,0.00047551,63.52702332,0,0,0
1314361944.02066660,0.00041785,0.00047585,63.70974350,0,0,0
1314361944.06947041,0.00041716,0.00047507,63.85935974,0,0,0
1314361944.11753345,0.00041758,0.00047542,64.04226685,0,0,0
1314361944.16964984,0.00041689,0.00047464,64.19214630,0,0,0
1314361944.20945740,0.00041731,0.00047498,64.37522125,0,0,0
1314361944.26965356,0.00041720,0.00047480,64.50852966,0,0,0
1314361944.31667185,0.00041704,0.00047454,64.70861816,0,0,0
1314361944.36948705,0.00041635,0.00047376,64.85900116,0,0,0
1314361944.41763926,0.00041676,0.00047410,65.04240417,0,0,0
1314361944.46859336,0.00041607,0.00047332,65.19300842,0,0,0
1314361944.50950527,0.00041648,0.00047365,65.37656403,0,0,0
1314361944.56865358,0.00041637,0.00047348,65.51033020,0,0,0
1314361944.61949587,0.00041620,0.00047321,65.71110535,0,0,0
1314361944.66860032,0.00041552,0.00047243,65.86217499,0,0,0
1314361944.71749139,0.00041592,0.00047276,66.04605865,0,0,0
1314361944.76850915,0.00041523,0.00047198,66.19739532,0,0,0
1314361944.81746364,0.00041564,0.00047231,66.38141632,0,0,0
1314361944.86945128,0.00041495,0.00047153,66.53297424,0,0,0
1314361944.91745830,0.00041536,0.00047186,66.71714783,0,0,0
1314361944.96850109,0.00041467,0.00047108,66.86894226,0,0,0
1314361945.02148294,0.00041507,0.00047141,67.05327606,0,0,0
1314361945.06863236,0.00041438,0.00047063,67.20529175,0,0,0
1314361945.11660314,0.00041478,0.00047095,67.38976288,0,0,0
1314361945.16947103,0.00041409,0.00047017,67.54202271,0,0,0
1314361945.21659923,0.00041449,0.00047050,67.72663879,0,0,0
1314361945.26947117,0.00041380,0.00046972,67.87911224,0,0,0
1314361945.30959940,0.00041420,0.00047004,68.06386566,0,0,0
1314361945.36862397,0.00041408,0.00046986,68.19886780,0,0,0
1314361945.41745901,0.00041391,0.00046958,68.40150452,0,0,0
1314361945.47072363,0.00041322,0.00046880,68.55443573,0,0,0
1314361945.51662660,0.00041361,0.00046912,68.73947906,0,0,0
1314361945.56948590,0.00041293,0.00046834,68.89263153,0,0,0
1314361945.61657000,0.00041332,0.00046865,69.07784271,0,0,0
1314361945.66945791,0.00041263,0.00046788,69.23126221,0,0,0
1314361945.70946145,0.00041302,0.00046819,69.41661835,0,0,0
1314361945.76962280,0.00041290,0.00046800,69.55221558,0,0,0
1314361945.80954862,0.00041272,0.00046772,69.75572968,0,0,0
1314361945.87057877,0.00041260,0.00046754,69.89147186,0,0,0
1314361945.91661525,0.00041242,0.00046726,70.09519196,0,0,0
1314361945.96946406,0.00041174,0.00046648,70.24924469,0,0,0
1314361946.01661563,0.00041212,0.00046679,70.43498993,0,0,0
1314361946.06854558,0.00041144,0.00046601,70.58926392,0,0,0
1314361946.11657667,0.00041182,0.00046632,70.77512360,0,0,0
1314361946.16863871,0.00041113,0.00046554,70.92961121,0,0,0
1314361946.20856166,0.00041151,0.00046584,71.11560822,0,0,0
1314361946.26965928,0.00041139,0.00046565,71.25189972,0,0,0
1314361946.31689286,0.00041121,0.00046537,71.45642090,0,0,0
1314361946.36945891,0.00041052,0.00046459,71.61130524,0,0,0
1314361946.41657805,0.00041090,0.00046489,71.79753876,0,0,0
1314361946.46951818,0.00041022,0.00046412,71.95264435,0,0,0
1314361946.51652169,0.00041059,0.00046442,72.13900757,0,0,0
1314361946.57056594,0.00040991,0.00046364,72.29432678,0,0,0
1314361946.61744595,0.00041029,0.00046394,72.48082733,0,0,0
1314361946.67003655,0.00040961,0.00046316,72.63636017,0,0,0
1314361946.71662569,0.00040998,0.00046346,72.82296753,0,0,0
1314361946.76854348,0.00040930,0.00046268,72.97870636,0,0,0
1314361946.81749630,0.00040967,0.00046298,73.16541290,0,0,0
1314361946.86947584,0.00040899,0.00046220,73.32131958,0,0,0
1314361946.92058825,0.00040936,0.00046250,73.50811005,0,0,0
1314361946.96973681,0.00040868,0.00046172,73.66421509,0,0,0
1314361947.01761127,0.00040904,0.00046201,73.85111237,0,0,0
1314361947.06950808,0.00040836,0.00046124,74.00740814,0,0,0
1314361947.11659384,0.00040873,0.00046153,74.19442749,0,0,0
1314361947.17350149,0.00040805,0.00046075,74.35092926,0,0,0
1314361947.21664739,0.00040842,0.00046104,74.53804016,0,0,0
1314361947.26949286,0.00040774,0.00046026,74.69472504,0,0,0
1314361947.32157373,0.00040810,0.00046055,74.88195801,0,0,0
1314361947.36950541,0.00040742,0.00045978,75.03884888,0,0,0
1314361947.41751981,0.00040779,0.00046007,75.22617340,0,0,0
1314361947.46950650,0.00040711,0.00045929,75.38326263,0,0,0
1314361947.51657915,0.00040747,0.00045958,75.57070160,0,0,0
1314361947.56949091,0.00040679,0.00045880,75.72799683,0,0,0
1314361947.61762834,0.00040715,0.00045908,75.91556549,0,0,0
1314361947.66953087,0.00040648,0.00045831,76.07304382,0,0,0
1314361947.71757364,0.00040683,0.00045859,76.26071930,0,0,0
1314361947.76672840,0.00040616,0.00045782,76.41838837,0,0,0
1314361947.81748295,0.00040652,0.00045810,76.60614014,0,0,0
1314361947.87017679,0.00040584,0.00045732,76.76400757,0,0,0
1314361947.91661525,0.00040620,0.00045761,76.95188904,0,0,0
1314361947.96949363,0.00040552,0.00045683,77.10995483,0,0,0
1314361948.01750803,0.00040587,0.00045711,77.29792023,0,0,0
1314361948.06947160,0.00040520,0.00045634,77.45616913,0,0,0
1314361948.11747384,0.00040555,0.00045661,77.64421844,0,0,0
1314361948.16950321,0.00040488,0.00045584,77.80263519,0,0,0
1314361948.21830535,0.00040523,0.00045612,77.99079895,0,0,0
1314361948.26955318,0.00040456,0.00045534,78.14942169,0,0,0
1314361948.32049346,0.00040491,0.00045562,78.33769226,0,0,0
1314361948.36958480,0.00040424,0.00045484,78.49650574,0,0,0
1314361948.41655111,0.00040458,0.00045512,78.68487549,0,0,0
1314361948.46946383,0.00040391,0.00045435,78.84385681,0,0,0
1314361948.52275395,0.00040426,0.00045462,79.03231049,0,0,0
1314361948.56858468,0.00040359,0.00045385,79.19147491,0,0,0
1314361948.62046218,0.00040394,0.00045412,79.37998962,0,0,0
1314361948.66851878,0.00040327,0.00045334,79.53933716,0,0,0
1314361948.72054076,0.00040361,0.00045362,79.72795105,0,0,0
1314361948.76847529,0.00040294,0.00045284,79.88745880,0,0,0
1314361948.82079887,0.00040328,0.00045311,80.07614899,0,0,0
1314361948.86853528,0.00040262,0.00045234,80.23582458,0,0,0
1314361948.91744924,0.00040296,0.00045261,80.42459869,0,0,0
1314361948.96854830,0.00040229,0.00045184,80.58443451,0,0,0
1314361949.01744819,0.00040263,0.00045211,80.77326202,0,0,0
1314361949.06947541,0.00040196,0.00045133,80.93325043,0,0,0
1314361949.11750674,0.00040230,0.00045160,81.12214661,0,0,0
1314361949.16849065,0.00040164,0.00045083,81.28228760,0,0,0
1314361949.22057772,0.00040197,0.00045109,81.47122955,0,0,0
1314361949.26994228,0.00040131,0.00045032,81.63153076,0,0,0
1314361949.30946279,0.00040165,0.00045059,81.82055664,0,0,0
1314361949.36853170,0.00040151,0.00045038,81.96035004,0,0,0
1314361949.41987133,0.00040132,0.00045008,82.17012024,0,0,0
1314361949.46852994,0.00040065,0.00044931,82.33074951,0,0,0
1314361949.52055645,0.00040099,0.00044957,82.51988220,0,0,0
1314361949.56945157,0.00040033,0.00044880,82.68064117,0,0,0
1314361949.62452102,0.00040066,0.00044906,82.86981201,0,0,0
1314361949.66954947,0.00040000,0.00044829,83.03071594,0,0,0
1314361949.70943165,0.00040033,0.00044855,83.21996307,0,0,0
1314361949.76961493,0.00040020,0.00044835,83.36009216,0,0,0
1314361949.81746793,0.00040000,0.00044804,83.57036591,0,0,0
1314361949.86950493,0.00039934,0.00044727,83.73159790,0,0,0
1314361949.92046285,0.00039967,0.00044753,83.92096710,0,0,0
1314361949.96953940,0.00039901,0.00044676,84.08238220,0,0,0
1314361950.01747489,0.00039934,0.00044702,84.27184296,0,0,0
1314361950.06950688,0.00039868,0.00044625,84.43341064,0,0,0
1314361950.10847211,0.00039900,0.00044651,84.62294006,0,0,0
1314361950.16847467,0.00039887,0.00044630,84.76344299,0,0,0
1314361950.21744275,0.00039867,0.00044600,84.97425842,0,0,0
1314361950.26966953,0.00039802,0.00044523,85.13613892,0,0,0
1314361950.32044339,0.00039834,0.00044548,85.32578278,0,0,0
1314361950.36952996,0.00039769,0.00044472,85.48783112,0,0,0
1314361950.42075133,0.00039801,0.00044497,85.67753601,0,0,0
1314361950.46956325,0.00039735,0.00044420,85.83972168,0,0,0
1314361950.51745725,0.00039768,0.00044446,86.02947998,0,0,0
1314361950.56854677,0.00039702,0.00044369,86.19182587,0,0,0
1314361950.62059164,0.00039734,0.00044394,86.38163757,0,0,0
1314361950.66963863,0.00039669,0.00044318,86.54414368,0,0,0
1314361950.72065139,0.00039701,0.00044343,86.73401642,0,0,0
1314361950.76846051,0.00039636,0.00044266,86.89665985,0,0,0
1314361950.81741500,0.00039668,0.00044291,87.08658600,0,0,0
1314361950.86945271,0.00039603,0.00044215,87.24938965,0,0,0
1314361950.91733980,0.00039634,0.00044240,87.43938446,0,0,0
1314361950.96954155,0.00039570,0.00044163,87.60234070,0,0,0
1314361951.00947332,0.00039601,0.00044188,87.79238129,0,0,0
1314361951.06955075,0.00039588,0.00044167,87.93363953,0,0,0
1314361951.12048769,0.00039568,0.00044136,88.14556885,0,0,0
1314361951.16947532,0.00039503,0.00044060,88.30878448,0,0,0
1314361951.21827722,0.00039534,0.00044085,88.49888611,0,0,0
1314361951.26946688,0.00039470,0.00044008,88.66223907,0,0,0
1314361951.32180214,0.00039501,0.00044033,88.85237885,0,0,0
1314361951.36852050,0.00039436,0.00043957,89.01586914,0,0,0
1314361951.41744328,0.00039468,0.00043981,89.20605469,0,0,0
1314361951.46852136,0.00039403,0.00043905,89.36967468,0,0,0
1314361951.50849485,0.00039434,0.00043930,89.55990601,0,0,0
1314361951.56947470,0.00039421,0.00043909,89.70149231,0,0,0
1314361951.62146854,0.00039401,0.00043878,89.91391754,0,0,0
1314361951.66918802,0.00039337,0.00043802,90.07779694,0,0,0
1314361951.72047377,0.00039367,0.00043826,90.26808929,0,0,0
1314361951.76851511,0.00039303,0.00043750,90.43212128,0,0,0
1314361951.81745315,0.00039334,0.00043774,90.62246704,0,0,0
1314361951.86997509,0.00039270,0.00043698,90.78664398,0,0,0
1314361951.92148519,0.00039300,0.00043722,90.97701263,0,0,0
1314361951.96945143,0.00039237,0.00043646,91.14127350,0,0,0
1314361952.02047443,0.00039267,0.00043670,91.33164978,0,0,0
1314361952.06945968,0.00039203,0.00043595,91.49601746,0,0,0
1314361952.11735272,0.00039234,0.00043619,91.68641663,0,0,0
1314361952.16853714,0.00039170,0.00043543,91.85092163,0,0,0
1314361952.22145414,0.00039200,0.00043567,92.04135895,0,0,0
1314361952.26946735,0.00039137,0.00043491,92.20597839,0,0,0
1314361952.32447791,0.00039167,0.00043515,92.39640045,0,0,0
1314361952.36949039,0.00039103,0.00043439,92.56113434,0,0,0
1314361952.41752362,0.00039133,0.00043463,92.75158691,0,0,0
1314361952.46946526,0.00039070,0.00043387,92.91644287,0,0,0
1314361952.50877523,0.00039100,0.00043411,93.10691833,0,0,0
1314361952.56847048,0.00039087,0.00043390,93.24908447,0,0,0
1314361952.61727858,0.00039066,0.00043359,93.46240234,0,0,0
1314361952.66860271,0.00039003,0.00043284,93.62751007,0,0,0
1314361952.70859885,0.00039033,0.00043307,93.81803131,0,0,0
1314361952.76964045,0.00039020,0.00043287,93.96031952,0,0,0
1314361952.81751060,0.00039000,0.00043255,94.17378998,0,0,0
1314361952.86945462,0.00038937,0.00043180,94.33912659,0,0,0
1314361952.91747284,0.00038966,0.00043204,94.52968597,0,0,0
1314361952.96950674,0.00038903,0.00043128,94.69512939,0,0,0
1314361953.01834440,0.00038933,0.00043152,94.88567352,0,0,0
1314361953.06964755,0.00038870,0.00043077,95.05120850,0,0,0
1314361953.12058449,0.00038900,0.00043100,95.24178314,0,0,0
1314361953.16946030,0.00038837,0.00043025,95.40744019,0,0,0
1314361953.22332501,0.00038866,0.00043048,95.59802246,0,0,0
1314361953.26929688,0.00038804,0.00042973,95.76380157,0,0,0
1314361953.32453203,0.00038833,0.00042996,95.95439911,0,0,0
1314361953.36853433,0.00038771,0.00042921,96.12030792,0,0,0
1314361953.41729736,0.00038800,0.00042944,96.31093597,0,0,0
1314361953.46952677,0.00038737,0.00042870,96.47695160,0,0,0
1314361953.52151012,0.00038766,0.00042893,96.66757965,0,0,0
1314361953.56957603,0.00038704,0.00042818,96.83370972,0,0,0
1314361953.62164140,0.00038733,0.00042841,97.02435303,0,0,0
1314361953.66946912,0.00038671,0.00042766,97.19060516,0,0,0
1314361953.70925879,0.00038700,0.00042789,97.38127899,0,0,0
1314361953.76858282,0.00038687,0.00042768,97.52408600,0,0,0
1314361953.80955744,0.00038667,0.00042737,97.73832703,0,0,0
1314361953.86850882,0.00038653,0.00042717,97.88117218,0,0,0
1314361953.91751647,0.00038634,0.00042686,98.09547424,0,0,0
1314361953.96948791,0.00038572,0.00042611,98.26203918,0,0,0
1314361954.02140975,0.00038600,0.00042634,98.45271301,0,0,0
1314361954.06945992,0.00038539,0.00042560,98.61938477,0,0,0
1314361954.11736274,0.00038567,0.00042582,98.81005096,0,0,0
1314361954.16867232,0.00038506,0.00042508,98.97682953,0,0,0
1314361954.21925402,0.00038534,0.00042531,99.16752625,0,0,0
1314361954.26940656,0.00038473,0.00042457,99.33441162,0,0,0
1314361954.32148004,0.00038501,0.00042479,99.52510071,0,0,0
1314361954.36945844,0.00038440,0.00042405,99.69208527,0,0,0
1314361954.42047668,0.00038468,0.00042428,99.88275909,0,0,0
1314361954.46945810,0.00038407,0.00042354,100.04982758,0,0,0
1314361954.52088189,0.00038435,0.00042376,100.24050140,0,0,0
1314361954.56860304,0.00038374,0.00042302,100.40766144,0,0,0
1314361954.61747289,0.00038402,0.00042325,100.59831238,0,0,0
1314361954.66925430,0.00038342,0.00042251,100.76554871,0,0,0
1314361954.71751618,0.00038370,0.00042273,100.95618439,0,0,0
1314361954.76848769,0.00038309,0.00042199,101.12350464,0,0,0
1314361954.81962085,0.00038337,0.00042222,101.31413269,0,0,0
1314361954.86950183,0.00038276,0.00042148,101.48153687,0,0,0
1314361954.91753054,0.00038304,0.00042170,101.67213440,0,0,0
1314361954.96849370,0.00038243,0.00042097,101.83962250,0,0,0
1314361955.01743960,0.00038271,0.00042119,102.03022003,0,0,0
1314361955.06924868,0.00038211,0.00042045,102.19781494,0,0,0
1314361955.11871123,0.00038238,0.00042068,102.38842010,0,0,0
1314361955.16951919,0.00038178,0.00041994,102.55611420,0,0,0
1314361955.21925950,0.00038206,0.00042016,102.74670410,0,0,0
1314361955.26953554,0.00038146,0.00041943,102.91446686,0,0,0
1314361955.31747198,0.00038173,0.00041965,103.10504913,0,0,0
1314361955.36948204,0.00038113,0.00041892,103.27290344,0,0,0
1314361955.41746950,0.00038141,0.00041914,103.46345520,0,0,0
1314361955.46856642,0.00038081,0.00041841,103.63138580,0,0,0
1314361955.52160311,0.00038108,0.00041862,103.82195282,0,0,0
1314361955.56879926,0.00038048,0.00041789,103.98999786,0,0,0
1314361955.62078190,0.00038075,0.00041811,104.18054962,0,0,0
1314361955.66944575,0.00038016,0.00041738,104.34867096,0,0,0
1314361955.71749973,0.00038043,0.00041760,104.53921509,0,0,0
1314361955.76946044,0.00037983,0.00041687,104.70743561,0,0,0
1314361955.81717348,0.00038011,0.00041709,104.89797974,0,0,0
1314361955.87203097,0.00037951,0.00041636,105.06629181,0,0,0
1314361955.92058182,0.00037978,0.00041658,105.25682831,0,0,0
1314361955.96945500,0.00037919,0.00041586,105.42524719,0,0,0
1314361956.02052045,0.00037946,0.00041607,105.61578369,0,0,0
1314361956.06951380,0.00037887,0.00041535,105.78428650,0,0,0
1314361956.11748028,0.00037914,0.00041556,105.97480774,0,0,0
1314361956.16852546,0.00037855,0.00041484,106.14338684,0,0,0
1314361956.21744204,0.00037881,0.00041506,106.33390045,0,0,0
1314361956.26865005,0.00037822,0.00041433,106.50257874,0,0,0
1314361956.32048798,0.00037849,0.00041455,106.69306183,0,0,0
1314361956.37353086,0.00037790,0.00041383,106.86180878,0,0,0
1314361956.42018437,0.00037817,0.00041404,107.05225372,0,0,0
1314361956.46979117,0.00037758,0.00041332,107.22106171,0,0,0
1314361956.51716638,0.00037785,0.00041353,107.41148376,0,0,0
1314361956.56951165,0.00037726,0.00041281,107.58034515,0,0,0
1314361956.61746454,0.00037753,0.00041303,107.77072144,0,0,0
1314361956.66952515,0.00037695,0.00041231,107.93962860,0,0,0
1314361956.72150135,0.00037721,0.00041252,108.12995911,0,0,0
1314361956.76945758,0.00037663,0.00041180,108.29892731,0,0,0
1314361956.82331562,0.00037689,0.00041202,108.48920441,0,0,0
1314361956.86957502,0.00037631,0.00041130,108.65821838,0,0,0
1314361956.91748595,0.00037657,0.00041151,108.84844971,0,0,0
1314361956.96945930,0.00037599,0.00041079,109.01750946,0,0,0
1314361957.02145839,0.00037626,0.00041101,109.20767975,0,0,0
1314361957.06985116,0.00037568,0.00041029,109.37681580,0,0,0
1314361957.12058616,0.00037594,0.00041050,109.56697845,0,0,0
1314361957.17069173,0.00037536,0.00040979,109.73618317,0,0,0
1314361957.22051883,0.00037562,0.00041000,109.92632294,0,0,0
1314361957.26954889,0.00037505,0.00040929,110.09560394,0,0,0
1314361957.31753278,0.00037531,0.00040950,110.28569031,0,0,0
1314361957.36919045,0.00037473,0.00040879,110.45502472,0,0,0
1314361957.41744137,0.00037499,0.00040900,110.64508057,0,0,0
1314361957.46956372,0.00037442,0.00040829,110.81446838,0,0,0
1314361957.52152181,0.00037468,0.00040850,111.00450134,0,0,0
1314361957.56972980,0.00037411,0.00040779,111.17398071,0,0,0
1314361957.61751008,0.00037437,0.00040800,111.36399078,0,0,0
1314361957.66919661,0.00037380,0.00040729,111.53353119,0,0,0
1314361957.70946431,0.00037405,0.00040750,111.72348022,0,0,0
1314361957.76947069,0.00037393,0.00040730,111.86727142,0,0,0
1314361957.81747437,0.00037374,0.00040700,112.08297729,0,0,0
1314361957.86850309,0.00037317,0.00040629,112.25263214,0,0,0
1314361957.92162180,0.00037343,0.00040650,112.44250488,0,0,0
1314361957.96946216,0.00037286,0.00040579,112.61220551,0,0,0
1314361958.02048969,0.00037312,0.00040600,112.80205536,0,0,0
1314361958.06945562,0.00037255,0.00040530,112.97181702,0,0,0
1314361958.12054014,0.00037281,0.00040551,113.16161346,0,0,0
1314361958.16949892,0.00037224,0.00040480,113.33142853,0,0,0
1314361958.21749473,0.00037250,0.00040501,113.52119446,0,0,0
1314361958.26922703,0.00037194,0.00040431,113.69107056,0,0,0
1314361958.32046795,0.00037219,0.00040452,113.88079071,0,0,0
1314361958.36945534,0.00037163,0.00040381,114.05072021,0,0,0
1314361958.42050290,0.00037188,0.00040402,114.24039459,0,0,0
1314361958.46946526,0.00037132,0.00040332,114.41037750,0,0,0
1314361958.51710367,0.00037157,0.00040353,114.60004425,0,0,0
1314361958.56858301,0.00037102,0.00040283,114.77010345,0,0,0
1314361958.62145996,0.00037127,0.00040304,114.95974731,0,0,0
1314361958.66963387,0.00037071,0.00040234,115.12986755,0,0,0
1314361958.72145796,0.00037096,0.00040254,115.31947327,0,0,0
1314361958.76948476,0.00037041,0.00040184,115.48965454,0,0,0
1314361958.82150626,0.00037066,0.00040205,115.67922211,0,0,0
1314361958.86945415,0.00037010,0.00040135,115.84944916,0,0,0
1314361958.92050338,0.00037035,0.00040156,116.03897095,0,0,0
1314361958.96849608,0.00036980,0.00040086,116.20923615,0,0,0
1314361959.01945615,0.00037005,0.00040107,116.39872742,0,0,0
1314361959.06945848,0.00036949,0.00040038,116.56906891,0,0,0
1314361959.11761975,0.00036974,0.00040058,116.75852203,0,0,0
1314361959.16946101,0.00036919,0.00039989,116.92890930,0,0,0
1314361959.22046995,0.00036944,0.00040009,117.11835480,0,0,0
1314361959.26946020,0.00036889,0.00039940,117.28882599,0,0,0
1314361959.32149744,0.00036914,0.00039961,117.47824860,0,0,0
1314361959.36860991,0.00036859,0.00039891,117.64878845,0,0,0
1314361959.41709924,0.00036884,0.00039912,117.83817291,0,0,0
1314361959.46987653,0.00036829,0.00039843,118.00875854,0,0,0
1314361959.52047372,0.00036853,0.00039863,118.19809723,0,0,0
1314361959.56946802,0.00036799,0.00039794,118.36872864,0,0,0
1314361959.61721182,0.00036823,0.00039815,118.55802917,0,0,0
1314361959.66947722,0.00036769,0.00039746,118.72872925,0,0,0
1314361959.72048092,0.00036793,0.00039766,118.91800690,0,0,0
1314361959.76920152,0.00036739,0.00039697,119.08876038,0,0,0
1314361959.81746817,0.00036763,0.00039718,119.27798462,0,0,0
1314361959.86953449,0.00036709,0.00039649,119.44876862,0,0,0
1314361959.91760278,0.00036734,0.00039670,119.63795471,0,0,0
1314361959.96949315,0.00036679,0.00039601,119.80879211,0,0,0
1314361960.02043533,0.00036704,0.00039621,119.99793243,0,0,0
1314361960.06946969,0.00036650,0.00039553,120.16882324,0,0,0
1314361960.12045646,0.00036674,0.00039573,120.35791779,0,0,0
1314361960.16847587,0.00036620,0.00039505,120.52884674,0,0,0
1314361960.22069573,0.00036644,0.00039525,120.71791077,0,0,0
1314361960.26916480,0.00036590,0.00039457,120.88888550,0,0,0
1314361960.32149053,0.00036615,0.00039477,121.07790375,0,0,0
1314361960.36847663,0.00036561,0.00039409,121.24892426,0,0,0
1314361960.42075706,0.00036585,0.00039430,121.43791199,0,0,0
1314361960.46946430,0.00036531,0.00039361,121.60897827,0,0,0
1314361960.51704383,0.00036555,0.00039382,121.79791260,0,0,0
1314361960.56846285,0.00036502,0.00039314,121.96900177,0,0,0
1314361960.62155628,0.00036526,0.00039334,122.15787506,0,0,0
1314361960.66949916,0.00036472,0.00039266,122.32900238,0,0,0
1314361960.72056127,0.00036496,0.00039286,122.51781464,0,0,0
1314361960.76947021,0.00036443,0.00039219,122.68897247,0,0,0
1314361960.82156968,0.00036467,0.00039239,122.87771606,0,0,0
1314361960.86947107,0.00036414,0.00039171,123.04888916,0,0,0
1314361960.92458177,0.00036438,0.00039192,123.23760986,0,0,0
1314361960.96858740,0.00036384,0.00039124,123.40883636,0,0,0
1314361961.02096844,0.00036408,0.00039144,123.59749603,0,0,0
1314361961.06916189,0.00036355,0.00039077,123.76875305,0,0,0
1314361961.12150073,0.00036379,0.00039097,123.95737457,0,0,0
1314361961.16947079,0.00036326,0.00039029,124.12868500,0,0,0
1314361961.22473502,0.00036350,0.00039050,124.31727600,0,0,0
1314361961.26946354,0.00036297,0.00038982,124.48863220,0,0,0
1314361961.31753445,0.00036321,0.00039003,124.67719269,0,0,0
